{"data":{"norad_id":41182,"intl_designator":"2015-081D","name":"ORBCOMM FM110","alt_names":[],"object_type":"PAYLOAD","status":"ACTIVE","operator":null,"country":"ORB","launch_date":"2015-12-22","launch_site_code":"AFETR","launch_vehicle":null,"mission":null,"orbit_class":"UNKNOWN","rcs_meters":0.5694,"size_class":null,"mass_kg":null,"dimensions":null,"purposes":["comms"],"wikipedia_slug":null,"has_3d_model":false,"image_url":null,"decayed_at":null,"tle_current":{"epoch":"2026-09-20T02:09:23.594688Z","epoch_age_seconds":49949,"freshness":"FRESH","line1":"1 41182U 15081D   26263.08985642  .00000267  00000+0  92468-4 0  9999","line2":"2 41182  47.0012 272.6714 0002383 177.7479 182.3418 14.58992874571488","mean_motion":14.58992874,"eccentricity":0.0002383,"inclination_deg":47.0012,"raan_deg":272.6714,"arg_perigee_deg":177.7479,"mean_anomaly_deg":182.3418,"bstar":9.2468e-5,"rev_number":57148,"period_min":98.698220235447,"perigee_km":694.74190866486,"apogee_km":698.11364623779,"semimajor_km":7074.5647774513,"source":"CELESTRAK","updated_at":"2026-09-20T09:00:44.910241Z"}}}